NUSAT-2 (BATATA) (41558 NORAD) Tracking and Keplerian Element Data

This shows tracking and keplerian element data for the satellite.

Feedback or suggestion? Click here.




ElementValue
Catalog41558
NameNUSAT-2 (BATATA)
Epoch Orbit18029
Epoch Day236.16982227
Epoch Year2019
RAAN324.5472
Inclination97.4199
Eccentricity0.0014371
Argument of Perigee66.7951
Mean Anonmoly293.4801
Mean Motion15.29225482
Decay Rate6.93E-06
L11 41558U 16033C 19236.16982227 .00000693 00000-0 27059-4 0 9999
L22 41558 97.4199 324.5472 0014371 66.7951 293.4801 15.29225482180298

Live tracking and technical data element details for NUSAT-2 (BATATA) (NORAD 41558). NUSAT-2 (BATATA) can be tracked NOW for your location showing map with azimuth and elevation plus other details from your city location.

Track the satellite on the map from your city or location and see movement details for azimuth, elevation, latitude, longitude, range, height, and movement on the map or in text.







IsCatalogInMostPopularTable: catalog: 41558, numindb: 192
Update: records affected: 1



GetName: 41558 NUSAT-2 (BATATA)

Hit Count: updated at: Sun, 25 Aug 2019 18:59:21 GMT